Home   Weather   Richmond Hill   Past weeks

Flag for Canada Past Weather in Richmond Hill, Ontario, Canada — Yesterday and Last 2 Weeks

Now
36 °F

Overcast.


Feels Like: 36 °F
Forecast: 29 / 37 °F
Wind: 2 mph from North

Location: Toronto Buttonville

Current Time: Dec 4, 2016 at 1:22:24 am

Latest Report: Dec 4, 2016 at 12:00 am


Visibility: 15 mi

Pressure: 30.27 "Hg

Humidity: 75%

Dew Point: 28 °F

Location of Richmond HillLocation

Past Weather in Richmond Hill — Graph

°F

Richmond Hill Temperature Yesterday

Maximum temperature yesterday: 37 °F (at 10:00 am)
Minimum temperature yesterday: 34 °F (at 12:00 am)
Average temperature yesterday: 36 °F

High & Low Weather Summary for the Past Weeks

 TemperatureHumidityPressure
High57 °F (Nov 29, 2:00 pm)100% (Nov 24, 2:00 am)30.40 "Hg (Nov 24, 2:00 am)
Low23 °F (Nov 23, 4:00 am)60% (Nov 22, 3:00 pm)29.43 "Hg (Nov 30, 10:00 pm)
Average37 °F83%29.97 "Hg
* Reported Nov 19 12:00 am — Dec 4 12:00 am, Richmond Hill, Weather by CustomWeather, © 2016

Note: Actual official high and low records may vary slightly from our data, if they occured in-between our weather recording intervals... More about our weather records

Advertising

Richmond Hill Weather History for the Previous 24 Hours

Scroll right to see more
 ConditionsComfort  
Time TempWeatherWind HumidityBarometerVisibility
12:00 am
Sun, Dec 4
36 °FOvercast.2 mph75%30.27 "Hg15 mi
11:00 pm
Sat, Dec 3
36 °FOvercast.3 mph81%30.24 "Hg15 mi
10:00 pm36 °FOvercast.2 mph75%30.24 "Hg15 mi
9:00 pm36 °FPassing clouds.2 mph75%30.23 "Hg15 mi
8:00 pm36 °FPassing clouds.5 mph70%30.23 "Hg15 mi
7:00 pm37 °FPassing clouds.6 mph65%30.23 "Hg15 mi
6:00 pm37 °FPassing clouds.6 mph70%30.24 "Hg15 mi
5:00 pm37 °FOvercast.5 mph70%30.24 "Hg15 mi
4:00 pm37 °FPartly sunny.6 mph75%30.22 "Hg15 mi
3:00 pm37 °FOvercast.9 mph75%30.20 "Hg15 mi
2:00 pm37 °FMore clouds than sun.12 mph75%30.17 "Hg15 mi
1:00 pm37 °FMostly cloudy.9 mph75%30.18 "Hg15 mi
12:00 pm37 °FBroken clouds.14 mph75%30.19 "Hg15 mi
11:00 am37 °FBroken clouds.13 mph75%30.19 "Hg15 mi
10:00 am37 °FPartly sunny.13 mph75%30.19 "Hg15 mi
9:00 am36 °FPartly sunny.8 mph75%30.17 "Hg15 mi
8:00 am34 °FScattered clouds.8 mph81%30.16 "Hg15 mi
7:00 am36 °FScattered showers. Passing clouds.7 mph81%30.14 "Hg14 mi
6:00 am34 °FSnow flurries. Passing clouds.12 mph87%30.13 "Hg13 mi
5:57 am34 °FSnow flurries. Passing clouds.10 mph87%30.13 "Hg7 mi
5:00 am34 °FPartly cloudy.14 mph93%30.11 "Hg13 mi
4:45 am34 °FPartly cloudy.8 mph93%30.11 "Hg13 mi
4:00 am34 °FLight snow. Passing clouds.7 mph93%30.11 "Hg4 mi
3:00 am34 °FLight rain. Passing clouds.9 mph93%30.10 "Hg14 mi
2:00 am34 °FSprinkles. Passing clouds.9 mph93%30.09 "Hg13 mi
1:00 am34 °FSprinkles. Passing clouds.7 mph93%30.07 "Hg9 mi
Weather by CustomWeather, © 2016

See weather overviewHow to use our weather pages